Location: Callanans Corners
(42.5326°N, 73.8846°W)
Time: 17:53:19
(UTC+00:00)

COSMOS 2455 - Pass Details

Date: 06 October 2022
Orbit: 900 x 909 km, 67.1° (Epoch: 05 December)

Event Time Altitude Azimuth Distance (km) Brightness Sun altitude
Rises 23:32:48 0° 171° (S) 3,505 5.8 -12.7°
Reaches altitude 10° 23:35:44 10° 158° (SSE) 2,570 5.0 -13.3°
Maximum altitude 23:40:23 24° 106° (ESE) 1,770 3.8 -14.1°
Enters shadow 23:43:12 17° 69° (ENE) 2,104 4.2 -14.6°
